User: anonymous   Login
Location: Syracuse
(43.0480°N, 76.1480°W)
Time: 07:18:04
(UTC-05:00)
Language:

Cosmos 1140 Rocket - Orbit

View from above orbital plane
View from above orbital plane
View from above satellite
View from above satellite

Ground track
Ground track

The orbit data is extracted from the following two-line orbital elements,

1 11574U 79089B   18053.60719939 +.00000005 +00000-0 +96945-5 0  9995
2 11574 074.0694 116.8055 0016840 314.5918 045.3862 14.40665371013027
Epoch (UTC): 22 February 2018 14:34:22
Eccentricity: 0.0016840
inclination: 74.0694°
perigee height: 744 km
apogee height: 768 km
right ascension of ascending node: 116.8055°
argument of perigee: 314.5918°
revolutions per day: 14.40665371
mean anomaly at epoch: 45.3862°
orbit number at epoch: 1302

The dashed part of the orbit path shows where the satellite is in the earth's shadow,  

DLR